This is the latest recevied weather packets stored in our database for station/object W6ORV. If no packets are shown the sender has not sent any weather packets the latest 10 day(s).
| Time | Temp. | Humidity | Pressure | Rain* | Wind** | Luminosity | Snow |
|---|---|---|---|---|---|---|---|
| 1778127000 | 16.67° C | 70% | 4302.5 hPa | 0 mm | - | 0 W/m² | - |
| 1778126695 | 17.22° C | 69% | 4302.5 hPa | 0 mm | - | 0 W/m² | - |
| 1778126391 | 16.67° C | 70% | 4302.5 hPa | 0 mm | - | 0 W/m² | - |
| 1778126088 | 17.22° C | 69% | 4302.4 hPa | 0 mm | - | 0 W/m² | - |
| 1778125785 | 17.22° C | 69% | 4302.2 hPa | 0 mm | - | 0 W/m² | - |
| 1778125482 | 17.22° C | 69% | 4302.4 hPa | 0 mm | - | 0 W/m² | - |
| 1778125180 | 17.22° C | 68% | 4302.2 hPa | 0 mm | - | 0 W/m² | - |
| 1778124878 | 17.78° C | 68% | 4302.3 hPa | 0 mm | - | 0 W/m² | - |
| 1778124574 | 17.78° C | 67% | 4302.2 hPa | 0 mm | - | 0 W/m² | - |
| 1778124271 | 17.78° C | 67% | 4302.4 hPa | 0 mm | - | 0 W/m² | - |
| 1778123967 | 18.33° C | 65% | 4302.2 hPa | 0 mm | - | 0 W/m² | - |
| 1778123664 | 18.89° C | 65% | 4302.1 hPa | 0 mm | - | 0 W/m² | - |
| 1778123361 | 18.89° C | 64% | 4302.1 hPa | 0 mm | - | 0 W/m² | - |
| 1778123058 | 19.44° C | 62% | 4301.8 hPa | 0 mm | - | 0 W/m² | - |
| 1778122755 | 20° C | 61% | 4302 hPa | 0 mm | - | 0 W/m² | - |
| 1778122452 | 20° C | 60% | 4301.7 hPa | 0 mm | - | 1 W/m² | - |
| 1778122150 | 20.56° C | 60% | 4301.7 hPa | 0 mm | - | 4 W/m² | - |
| 1778121847 | 21.11° C | 58% | 4301.8 hPa | 0 mm | - | 6 W/m² | - |
| 1778121543 | 21.11° C | 58% | 4301.7 hPa | 0 mm | - | 10 W/m² | - |
| 1778121240 | 21.67° C | 57% | 4301.4 hPa | 0 mm | - | 13 W/m² | - |
| 1778120937 | 21.67° C | 56% | 4301.7 hPa | 0 mm | - | 17 W/m² | - |
| 1778120633 | 22.22° C | 56% | 4301.4 hPa | 0 mm | - | 22 W/m² | - |
| 1778120329 | 22.22° C | 55% | 4301.4 hPa | 0 mm | - | 26 W/m² | - |
| 1778120025 | 22.78° C | 54% | 4301.5 hPa | 0 mm | - | 30 W/m² | - |
| 1778119723 | 22.78° C | 53% | 4301.3 hPa | 0 mm | - | 35 W/m² | - |
* Rain latest hour (hover to see other rain measurements)
** Current wind speed in m/s (hover to see current wind gust speed)